FW3802 Weather Reports


Display with metric or nautical units.
time (UTC)temp
F
wind
direction
speed
MPH
gust
MPH
rain 1hr
in
rain 24hr
in
rain mn
in
humidity
%
barometer
mb
20260504201904 76 273 1.0 4.0 0.00 0.00 0.00 37 1013.8
20260504201345 76 208 0.0 5.0 0.00 0.00 0.00 36 1013.9
20260504195904 76 83 0.0 2.0 0.00 0.00 0.00 40 1014.0
20260504195822 75 345 1.0 4.0 0.00 0.00 0.00 38 1014.2
20260504193858 76 354 0.0 2.0 0.00 0.00 0.00 39 1014.2
20260504193339 76 216 0.0 3.0 0.00 0.00 0.00 37 1014.3
20260504191858 76 270 0.0 4.0 0.00 0.00 0.00 37 1014.4
20260504190857 76 69 1.0 4.0 0.00 0.00 0.00 40 1014.6
20260504185857 76 326 0.0 3.0 0.00 0.00 0.00 40 1014.6
20260504184857 76 333 0.0 3.0 0.00 0.00 0.00 38 1014.9
20260504183858 76 60 0.0 4.0 0.00 0.00 0.00 38 1014.9
20260504182858 75 253 0.0 3.0 0.00 0.00 0.00 40 1015.2
20260504181900 75 256 1.0 5.0 0.00 0.00 0.00 38 1015.2
20260504180851 75 127 1.0 6.0 0.00 0.00 0.00 37 1015.3
20260504175850 75 332 0.0 3.0 0.00 0.00 0.00 37 1015.3
20260504174850 76 323 0.0 2.0 0.00 0.00 0.00 39 1015.3
20260504173851 75 84 0.0 3.0 0.00 0.00 0.00 37 1015.5
20260504172849 75 338 0.0 2.0 0.00 0.00 0.00 39 1015.5
20260504171853 74 134 1.0 4.0 0.00 0.00 0.00 38 1015.6
20260504170849 74 55 0.0 6.0 0.00 0.00 0.00 38 1015.9
20260504150846 67 229 0.0 2.0 0.00 0.00 0.00 53 1017.4
20260504150321 65 359 0.0 2.0 0.00 0.00 0.00 53 1017.5
20260504140838 59 340 1.0 2.0 0.00 0.00 0.00 69 1017.3
20260504081821 48 349 0.0 0.0 0.00 0.00 0.00 89 1016.6
20260504081305 48 349 0.0 0.0 0.00 0.00 0.00 88 1016.4
20260504045814 56 154 0.0 0.0 0.00 0.00 0.00 65 1016.5
20260504044813 57 154 0.0 0.0 0.00 0.00 0.00 64 1016.4
20260504043812 56 164 0.0 0.0 0.00 0.00 0.00 64 1016.2
20260504042813 56 155 0.0 0.0 0.00 0.00 0.00 65 1016.4
20260504041813 56 316 0.0 0.0 0.00 0.00 0.00 65 1016.4
20260504040813 55 317 0.0 0.0 0.00 0.00 0.00 65 1016.4
20260504035813 55 317 0.0 0.0 0.00 0.00 0.00 67 1016.6
20260504034812 54 317 0.0 0.0 0.00 0.00 0.00 68 1016.6
20260504033813 53 317 0.0 0.0 0.00 0.00 0.00 70 1016.7
20260504032813 54 317 0.0 0.0 0.00 0.00 0.00 68 1016.7
20260504031813 54 317 0.0 0.0 0.00 0.00 0.00 67 1016.7
20260504031256 54 317 0.0 0.0 0.00 0.00 0.00 67 1016.7
20260504025813 54 317 0.0 0.0 0.00 0.00 0.00 67 1016.7
20260504024812 54 317 0.0 0.0 0.00 0.00 0.00 68 1016.7
20260504023809 54 317 0.0 0.0 0.00 0.00 0.00 68 1016.7
20260504022808 54 317 0.0 0.0 0.00 0.00 0.00 67 1016.6
20260504021809 55 317 0.0 0.0 0.00 0.00 0.00 64 1016.4
20260504021732 55 317 0.0 0.0 0.00 0.00 0.00 61 1016.3
20260504015810 55 317 0.0 0.0 0.00 0.00 0.00 61 1016.1
20260504014806 56 317 0.0 0.0 0.00 0.00 0.00 60 1016.0
20260504013807 56 317 0.0 0.0 0.00 0.00 0.00 58 1015.8
20260504013718 57 317 0.0 0.0 0.00 0.00 0.00 57 1015.9
20260504011801 57 317 0.0 0.0 0.00 0.00 0.00 56 1015.8
20260504010800 58 317 0.0 0.0 0.00 0.00 0.00 52 1015.6
20260504010728 59 317 0.0 0.0 0.00 0.00 0.00 49 1015.5
20260504004800 59 317 0.0 0.0 0.00 0.00 0.00 48 1015.4
20260504003800 60 317 0.0 0.0 0.00 0.00 0.00 46 1015.4
20260504003714 61 317 0.0 0.0 0.00 0.00 0.00 45 1015.4
20260504001801 62 317 0.0 0.0 0.00 0.00 0.00 43 1015.3
20260504000801 63 317 0.0 0.0 0.00 0.00 0.00 42 1015.2
20260503235754 63 317 0.0 0.0 0.00 0.00 0.00 42 1015.1
20260503234754 64 317 0.0 0.0 0.00 0.00 0.00 41 1015.2
20260503233754 65 317 0.0 0.0 0.00 0.00 0.00 40 1015.1
20260503232754 65 317 0.0 0.0 0.00 0.00 0.00 39 1015.1
20260503231754 65 317 0.0 0.0 0.00 0.00 0.00 39 1015.1
20260503230754 66 333 0.0 0.0 0.00 0.00 0.00 40 1015.1
20260503230243 66 219 0.0 1.0 0.00 0.00 0.00 38 1015.2
20260503224754 67 274 0.0 0.0 0.00 0.00 0.00 38 1015.2
20260503223757 67 256 0.0 0.0 0.00 0.00 0.00 38 1015.3
20260503222748 66 333 0.0 4.0 0.00 0.00 0.00 39 1015.4
20260503221748 66 323 0.0 2.0 0.00 0.00 0.00 39 1015.4
20260503220748 66 335 0.0 3.0 0.00 0.00 0.00 36 1015.5
20260503215749 67 271 0.0 1.0 0.00 0.00 0.00 37 1015.6
20260503215709 66 260 0.0 3.0 0.00 0.00 0.00 37 1015.7
20260503213748 66 231 0.0 4.0 0.00 0.00 0.00 37 1015.9
20260503212748 66 291 0.0 3.0 0.00 0.00 0.00 36 1015.8
20260503211748 66 301 0.0 2.0 0.00 0.00 0.00 38 1016.0
20260503210749 66 319 0.0 2.0 0.00 0.00 0.00 37 1016.1
20260503205742 65 262 0.0 2.0 0.00 0.00 0.00 36 1016.1
20260503204742 65 309 0.0 4.0 0.00 0.00 0.00 39 1016.2
20260503204216 65 334 0.0 2.0 0.00 0.00 0.00 38 1016.4
20260503202741 65 328 0.0 3.0 0.00 0.00 0.00 36 1016.5